Regional Weather Roundup
Issued by NWS

Home | Current Version | Previous Version | Graphics & Text | Print | Product List | Glossary On
Versions: 1 2 3 4 5 6 7 8 9 10 11 12 13 14 15 16 17 18 19 20 21 22 23 24 25 26 27 28 29 30 31 32 33 34 35 36 37 38 39 40 41 42 43 44 45 46 47 48 49 50
000
ASUS43 KDMX 260008
RWRIA

WEATHER ROUNDUP FOR IOWA
NATIONAL WEATHER SERVICE DES MOINES IA
700 PM CDT THU AUG 25 2016

NOTE: "FAIR" INDICATES FEW OR NO CLOUDS BELOW 12,000 FEET WITH NO
SIGNIFICANT WEATHER AND/OR OBSTRUCTIONS TO VISIBILITY.

* - THESE STATIONS ARE NOT NWS STATIONS...THUS NOT UNDER NWS
QUALITY CONTROL.  THEY ALSO DO NOT REPORT WEATHER SUCH
AS PRECIPITATION OR FOG.

IAZ001>003-012>014-020>022-031>034-043>046-260100-
   NORTHWEST IOWA

CITY           SKY/WX    TMP DP  RH WIND       PRES   REMARKS
CARROLL *      SUNNY     73  63  68 NW6       30.10F
CHEROKEE *     SUNNY     73  59  61 W3        30.12F
DENISON *      SUNNY     72  61  68 NW5       30.10S
LE MARS *      SUNNY     73  59  60 NW3       30.13S
ORANGE CITY *  SUNNY     72  61  68 NW5       30.13S
SHELDON *      SUNNY     72  61  68 NW5       30.11F
SIOUX CITY     SUNNY     74  58  57 N7        30.11F
6HR MIN TEMP:  68; 6HR MAX TEMP:  76;

SPENCER        SUNNY     72  57  59 NW7       30.11F
6HR MIN TEMP:  71; 6HR MAX TEMP:  76;

STORM LAKE *   SUNNY     72  59  64 NW6       30.13S
$$

IAZ055>058-069>071-079>083-090>094-260100-
   SOUTHWEST IOWA

CITY           SKY/WX    TMP DP  RH WIND       PRES   REMARKS
ATLANTIC *     SUNNY     73  64  73 CALM      30.10F
AUDUBON *      SUNNY     75  61  60 CALM      30.12F
CLARINDA *       N/A     73  64  73 MISG      30.11S
COUNCIL BLFS * SUNNY     73  61  64 N5        30.10F
CRESTON *      MOSUNNY   72  63  73 NE9       30.11F
HARLAN  *      SUNNY     73  64  73 CALM      30.14F
LAMONI         CLOUDY    73  63  70 NE7       30.09S
6HR MIN TEMP:  68; 6HR MAX TEMP:  77;

RED OAK *      SUNNY     73  63  68 N6        30.10F
SHENANDOAH *   SUNNY     72 -36   1 N5        30.10F
$$

IAZ047>049-059>061-072>074-084-260100-
   CENTRAL IOWA

CITY           SKY/WX    TMP DP  RH WIND       PRES   REMARKS
AMES           CLOUDY    75  63  66 NW7       30.09F
6HR MIN TEMP:  71; 6HR MAX TEMP:  77;

ANKENY *         N/A    N/A N/A N/A MISG        N/A
BOONE *        SUNNY     73  63  68 CALM      30.09S
CHARITON *       N/A     72  64  78 MISG      30.09S
DES MOINES     CLOUDY    75  60  59 NW5       30.09S
6HR MIN TEMP:  73; 6HR MAX TEMP:  78; 6HR PCP: TRACE;

GRINNELL*      MOCLDY    71  65  83 CALM      30.10F
KNOXVILLE *    MOCLDY    72  63  73 N5        30.08S
MARSHALLTOWN   CLOUDY    74  63  68 NW3       30.08F
6HR MIN TEMP:  72; 6HR MAX TEMP:  75;

NEWTON *       PTCLDY    72  64  78 CALM      30.08F
PERRY *          N/A     75  65  70 CALM      30.10S
$$

IAZ004>006-015-016-023>025-035-036-260100-
   NORTH CENTRAL IOWA

CITY           SKY/WX    TMP DP  RH WIND       PRES   REMARKS
ALGONA *       SUNNY     73  59  60 NW6       30.11S
ESTHERVILLE    SUNNY     69  59  70 NW9       30.10F
6HR MIN TEMP:  68; 6HR MAX TEMP:  74;

FORT DODGE *   SUNNY     73  61  64 NW3       30.11S
MASON CITY     CLEAR     73  59  61 W6        30.10F
6HR MIN TEMP:  73; 6HR MAX TEMP:  76;

FOREST CITY *    N/A    N/A N/A N/A MISG        N/A
WEBSTER CITY * SUNNY     73  66  78 NW6       30.08S
IOWA FALLS *     N/A     75  62  63 SW3       30.10F
$$

IAZ007>011-017>019-026>030-037>042-050>054-066-260100-
   NORTHEAST IOWA

CITY           SKY/WX    TMP DP  RH WIND       PRES   REMARKS
CEDAR RAPIDS   CLOUDY    72  67  84 N3        30.08S
6HR MIN TEMP:  72; 6HR MAX TEMP:  76;

CHARLES CITY * CLEAR     73  64  73 NW3       30.09S
CLINTON *      MOCLDY    73  69  87 W3        30.07S
DECORAH *      CLEAR     72  61  68 VRB6      30.07S
DUBUQUE        CLOUDY    72  64  76 NW3       30.09S
6HR MIN TEMP:  72; 6HR MAX TEMP:  78;

MONTICELLO *   MOCLDY    72  66  83 CALM      30.08S
OELWEIN *      MOCLDY    70  64  83 W3        30.09S
WATERLOO       CLOUDY    73  63  70 W3        30.07S
6HR MIN TEMP:  72; 6HR MAX TEMP:  78;

$$

IAZ064-065-067-068-078-260100-
   EAST CENTRAL IOWA

CITY           SKY/WX    TMP DP  RH WIND       PRES   REMARKS
DAVENPORT      PTCLDY    73  66  78 NW3       30.07F
6HR MIN TEMP:  73; 6HR MAX TEMP:  77;

IOWA CITY      CLOUDY    73  63  70 N6        30.08S
6HR MIN TEMP:  73; 6HR MAX TEMP:  78; 6HR PCP: TRACE;

MT. PLEASANT * PTCLDY    76  68  76 N5        30.08S
MUSCATINE *    MOCLDY    75  66  73 N3        30.07R
QUAD CITIES    PTCLDY    77  61  57 NW7       30.06R
6HR MIN TEMP:  76; 6HR MAX TEMP:  81;

$$

IAZ062-063-075>077-085>089-095>099-260100-
   SOUTHEAST IOWA

CITY           SKY/WX    TMP DP  RH WIND       PRES   REMARKS
BURLINGTON     PTCLDY    76  65  68 N7        30.07R
6HR MIN TEMP:  74; 6HR MAX TEMP:  81; 6HR PCP: TRACE;

FAIRFIELD *    CLOUDY    75  64  69 N7        30.08S
FORT MADISON * CLOUDY    75  66  73 CALM      30.07S
KEOKUK *       MOCLDY    77  66  69 CALM      30.05F
OSKALOOSA *    CLOUDY    71  65  83 N3        30.09S
OTTUMWA        MOCLDY    73  65  75 N6        30.07F
6HR MIN TEMP:  69; 6HR MAX TEMP:  78; 6HR PCP: TRACE;

WASHINGTON *   MOCLDY    73  68  83 N3        30.09S
$$

ABBREVIATIONS USED IN REMARKS
   TC - TEMPERATURES IN CELSIUS
  WCI - WIND CHILL INDEX
   HX - HEAT INDEX
  VSB - VISIBILITY
$$





USA.gov is the U.S. government's official web portal to all federal, state and local government web resources and services.